Location: Nitra
(0.0000°N, 18.0833°E)
Time: 18:53:26
(UTC+02:00)

YUBILEINY - Pass Details

Date: 13 June 2023
Orbit: 1478 x 1508 km, 82.5° (Epoch: 02 October)

Event Time Altitude Azimuth Distance (km) Brightness Sun altitude
Exits shadow 06:15:20 - 240° (WSW) 3,845 ? -7.4°
Reaches altitude 10° 06:16:32 10° 247° (WSW) 3,660 ? -7.2°
Maximum altitude 06:20:21 13° 273° (W) 3,387 ? -6.3°
Drops below altitude 10° 06:24:11 10° 300° (WNW) 3,658 ? -5.4°
Sets 06:29:14 0° 324° (NW) 4,635 ? -4.2°
